TimeCDT,TemperatureF,Dew PointF,Humidity,Sea Level PressureIn,VisibilityMPH,Wind Direction,Wind SpeedMPH,Gust SpeedMPH,PrecipitationIn,Events,Conditions,WindDirDegrees,DateUTC
12:51 AM,79.0,73.9,84,30.01,10.0,East,5.8,-,N/A,,Clear,100,2013-10-02 05:51:00
1:51 AM,79.0,75.0,88,30.00,10.0,East,3.5,-,N/A,,Clear,90,2013-10-02 06:51:00
2:51 AM,79.0,75.0,88,29.99,10.0,East,3.5,-,0.00,,Partly Cloudy,100,2013-10-02 07:51:00
3:51 AM,79.0,75.0,88,29.98,10.0,East,3.5,-,N/A,,Clear,90,2013-10-02 08:51:00
4:51 AM,79.0,73.9,84,29.99,10.0,Calm,Calm,-,N/A,,Partly Cloudy,0,2013-10-02 09:51:00
5:51 AM,79.0,75.0,88,29.99,10.0,ENE,3.5,-,N/A,,Partly Cloudy,70,2013-10-02 10:51:00
6:51 AM,79.0,75.0,88,30.00,9.0,Calm,Calm,-,0.01,Rain,Light Rain,0,2013-10-02 11:51:00
7:38 AM,80.6,75.2,84,30.01,6.0,Calm,Calm,-,0.00,,Haze,0,2013-10-02 12:38:00
7:51 AM,80.1,75.0,85,30.02,10.0,Calm,Calm,-,0.00,,Partly Cloudy,0,2013-10-02 12:51:00
8:51 AM,82.9,72.0,69,30.03,10.0,Calm,Calm,-,0.00,,Scattered Clouds,0,2013-10-02 13:51:00
9:51 AM,84.0,75.0,74,30.03,10.0,NE,4.6,-,N/A,,Clear,50,2013-10-02 14:51:00
10:51 AM,84.0,72.0,67,30.04,10.0,East,8.1,-,N/A,,Partly Cloudy,90,2013-10-02 15:51:00
11:51 AM,82.0,73.9,76,30.04,10.0,ESE,5.8,-,N/A,,Mostly Cloudy,110,2013-10-02 16:51:00
11:55 AM,80.6,73.4,79,30.04,1.2,Calm,Calm,-,0.01,Rain,Heavy Rain,0,2013-10-02 16:55:00
12:02 PM,78.8,73.4,83,30.04,0.5,Calm,Calm,-,0.17,Rain,Light Rain,0,2013-10-02 17:02:00
12:06 PM,80.6,73.4,79,30.03,2.0,NNW,3.5,-,0.17,Rain,Light Rain,330,2013-10-02 17:06:00
12:13 PM,80.6,75.2,84,30.03,10.0,ESE,4.6,-,0.17,,Overcast,110,2013-10-02 17:13:00
12:51 PM,82.0,75.0,79,30.02,10.0,East,8.1,-,0.17,,Mostly Cloudy,80,2013-10-02 17:51:00
1:05 PM,80.6,73.4,79,30.01,10.0,East,6.9,-,N/A,,Mostly Cloudy,90,2013-10-02 18:05:00
1:51 PM,82.0,73.9,76,29.99,10.0,East,6.9,-,0.00,Rain,Light Rain,90,2013-10-02 18:51:00
2:51 PM,82.9,73.0,72,29.97,10.0,ENE,8.1,-,0.00,,Clear,60,2013-10-02 19:51:00
3:51 PM,84.0,73.9,72,29.97,10.0,East,9.2,-,N/A,,Clear,80,2013-10-02 20:51:00
4:51 PM,82.0,73.9,76,29.97,10.0,ENE,12.7,-,N/A,,Scattered Clouds,60,2013-10-02 21:51:00
5:45 PM,78.8,75.2,89,29.99,1.8,East,11.5,-,0.04,Rain,Heavy Rain,80,2013-10-02 22:45:00
5:51 PM,79.0,75.0,88,29.99,1.2,East,9.2,-,0.11,Rain,Heavy Rain,80,2013-10-02 22:51:00
6:00 PM,78.8,75.2,89,29.99,3.0,East,6.9,-,0.03,Rain,Rain,90,2013-10-02 23:00:00
6:18 PM,78.8,75.2,89,29.99,1.8,East,11.5,-,0.12,Rain,Heavy Rain,80,2013-10-02 23:18:00
6:27 PM,78.8,75.2,89,29.98,2.0,East,9.2,-,0.22,Rain,Light Rain,80,2013-10-02 23:27:00
6:35 PM,78.8,75.2,89,29.99,9.0,East,8.1,-,0.22,Rain,Light Rain,90,2013-10-02 23:35:00
6:48 PM,78.8,75.2,89,29.99,3.0,East,10.4,-,0.28,Rain,Heavy Rain,90,2013-10-02 23:48:00
6:51 PM,79.0,73.9,84,29.99,2.5,East,8.1,-,0.29,Rain,Rain,90,2013-10-02 23:51:00
6:53 PM,78.8,73.4,83,29.99,3.0,East,9.2,-,0.01,Rain,Light Rain,90,2013-10-02 23:53:00
7:51 PM,79.0,73.9,84,30.00,10.0,East,9.2,-,0.01,Rain,Light Rain,100,2013-10-03 00:51:00
8:13 PM,75.2,71.6,89,30.01,9.0,ESE,16.1,23.0,0.00,Rain,Light Rain,120,2013-10-03 01:13:00
8:26 PM,73.4,71.6,94,30.01,8.0,ESE,10.4,21.9,0.00,Rain,Light Rain,120,2013-10-03 01:26:00
8:51 PM,75.0,72.0,90,30.01,10.0,ESE,8.1,-,0.01,Rain,Light Rain,110,2013-10-03 01:51:00
9:51 PM,77.0,73.0,88,30.02,10.0,ESE,6.9,-,0.00,,Mostly Cloudy,120,2013-10-03 02:51:00
10:51 PM,78.1,72.0,81,30.01,10.0,ESE,5.8,-,N/A,,Overcast,110,2013-10-03 03:51:00
11:51 PM,78.1,75.0,90,30.01,10.0,ESE,6.9,-,N/A,,Mostly Cloudy,110,2013-10-03 04:51:00